Location: Le Petit-Vavre
(46.5081°N, 1.5239°E)
Time: 18:07:08
(UTC+00:00)

USA 305 - Pass Details

Date: 03 March 2021
Orbit: 567 x 574 km, 54.0° (Epoch: 13 April)

Event Time Altitude Azimuth Distance (km) Brightness Sun altitude
Rises 19:44:18 0° 293° (WNW) 2,780 7.9 -21.5°
Reaches altitude 10° 19:46:46 10° 304° (WNW) 1,880 6.5 -22.0°
Maximum altitude 19:50:35 31° 7° (N) 1,026 4.2 -22.6°
Enters shadow 19:51:05 30° 21° (NNE) 1,046 4.1 -22.7°
